Time,TemperatureF,DewpointF,PressureIn,WindDirection,WindDirectionDegrees,WindSpeedMPH,WindSpeedGustMPH,Humidity,HourlyPrecipIn,Conditions,Clouds,dailyrainin,SoftwareType,DateUTC
2014-01-10 00:01:00,12.1,7.7,30.60,East,95,0.0,0.0,82,0.00,,,0.00,WeatherCatV1.15B25,2014-01-10 05:01:00,
2014-01-10 00:03:00,12.2,8.0,30.60,East,95,0.0,1.0,83,0.00,,,0.00,WeatherCatV1.15B25,2014-01-10 05:03:00,
2014-01-10 00:05:00,12.3,8.1,30.60,East,95,0.0,0.0,83,0.00,,,0.00,WeatherCatV1.15B25,2014-01-10 05:05:00,
2014-01-10 00:10:00,12.4,8.0,30.59,East,95,0.0,0.0,82,0.00,,,0.00,WeatherCatV1.15B25,2014-01-10 05:10:00,
2014-01-10 00:15:00,12.3,7.9,30.59,East,95,0.0,0.0,82,0.00,,,0.00,WeatherCatV1.15B25,2014-01-10 05:15:00,
2014-01-10 00:20:00,12.1,7.7,30.59,East,95,0.0,0.0,82,0.00,,,0.00,WeatherCatV1.15B25,2014-01-10 05:20:00,
2014-01-10 00:25:00,12.0,7.8,30.60,East,95,0.0,0.0,83,0.00,,,0.00,WeatherCatV1.15B25,2014-01-10 05:25:00,
2014-01-10 00:30:00,11.8,7.7,30.60,East,95,0.0,0.0,83,0.00,,,0.00,WeatherCatV1.15B25,2014-01-10 05:30:00,
2014-01-10 00:35:00,11.6,7.2,30.59,East,95,0.0,0.0,82,0.00,,,0.00,WeatherCatV1.15B25,2014-01-10 05:35:00,
2014-01-10 00:40:00,11.2,6.8,30.59,East,95,0.0,0.0,82,0.00,,,0.00,WeatherCatV1.15B25,2014-01-10 05:40:00,
2014-01-10 00:45:00,10.9,6.5,30.59,East,95,0.0,0.0,82,0.00,,,0.00,WeatherCatV1.15B25,2014-01-10 05:45:00,
2014-01-10 00:50:00,10.7,6.6,30.59,East,95,0.0,0.0,83,0.00,,,0.00,WeatherCatV1.15B25,2014-01-10 05:50:00,
2014-01-10 00:55:00,10.9,7.0,30.59,East,95,0.0,0.0,84,0.00,,,0.00,WeatherCatV1.15B25,2014-01-10 05:55:00,
2014-01-10 01:00:00,11.0,7.1,30.60,East,95,0.0,0.0,84,0.00,,,0.00,WeatherCatV1.15B25,2014-01-10 06:00:00,
2014-01-10 01:05:00,11.1,7.0,30.60,East,95,0.0,0.0,83,0.00,,,0.00,WeatherCatV1.15B25,2014-01-10 06:05:00,
2014-01-10 01:10:00,11.3,7.4,30.60,East,95,0.0,0.0,84,0.00,,,0.00,WeatherCatV1.15B25,2014-01-10 06:10:00,
2014-01-10 01:15:00,11.3,7.2,30.60,East,95,0.0,0.0,83,0.00,,,0.00,WeatherCatV1.15B25,2014-01-10 06:15:00,
2014-01-10 01:20:00,11.3,7.4,30.61,East,95,0.0,0.0,84,0.00,,,0.00,WeatherCatV1.15B25,2014-01-10 06:20:00,
2014-01-10 01:25:00,11.2,7.1,30.60,East,95,0.0,0.0,83,0.00,,,0.00,WeatherCatV1.15B25,2014-01-10 06:25:00,
2014-01-10 01:30:00,11.0,6.9,30.60,East,95,0.0,0.0,83,0.00,,,0.00,WeatherCatV1.15B25,2014-01-10 06:30:00,
2014-01-10 01:35:00,10.8,6.7,30.60,East,95,0.0,0.0,83,0.00,,,0.00,WeatherCatV1.15B25,2014-01-10 06:35:00,
2014-01-10 01:40:00,11.2,7.3,30.60,East,95,0.0,0.0,84,0.00,,,0.00,WeatherCatV1.15B25,2014-01-10 06:40:00,
2014-01-10 01:45:00,11.7,7.6,30.60,East,95,0.0,0.0,83,0.00,,,0.00,WeatherCatV1.15B25,2014-01-10 06:45:00,
2014-01-10 01:50:00,11.8,7.7,30.60,East,95,0.0,0.0,83,0.00,,,0.00,WeatherCatV1.15B25,2014-01-10 06:50:00,
2014-01-10 01:55:00,11.8,7.4,30.60,East,95,0.0,0.0,82,0.00,,,0.00,WeatherCatV1.15B25,2014-01-10 06:55:00,
2014-01-10 02:00:00,11.5,7.1,30.60,East,95,0.0,0.0,82,0.00,,,0.00,WeatherCatV1.15B25,2014-01-10 07:00:00,
2014-01-10 02:05:00,11.4,7.3,30.60,East,95,0.0,0.0,83,0.00,,,0.00,WeatherCatV1.15B25,2014-01-10 07:05:00,
2014-01-10 02:12:00,11.5,7.4,30.60,East,95,0.0,0.0,83,0.00,,,0.00,WeatherCatV1.15B25,2014-01-10 07:12:00,
2014-01-10 02:17:00,11.4,7.3,30.60,East,95,0.0,0.0,83,0.00,,,0.00,WeatherCatV1.15B25,2014-01-10 07:17:00,
2014-01-10 02:22:00,11.3,7.2,30.60,East,95,0.0,0.0,83,0.00,,,0.00,WeatherCatV1.15B25,2014-01-10 07:22:00,
2014-01-10 02:27:00,11.1,7.0,30.60,East,95,0.0,0.0,83,0.00,,,0.00,WeatherCatV1.15B25,2014-01-10 07:27:00,
2014-01-10 02:32:00,11.1,7.2,30.59,East,95,0.0,0.0,84,0.00,,,0.00,WeatherCatV1.15B25,2014-01-10 07:32:00,
2014-01-10 02:37:00,11.3,7.4,30.59,East,95,0.0,0.0,84,0.00,,,0.00,WeatherCatV1.15B25,2014-01-10 07:37:00,
2014-01-10 02:42:00,11.3,7.4,30.59,East,95,0.0,0.0,84,0.00,,,0.00,WeatherCatV1.15B25,2014-01-10 07:42:00,
2014-01-10 02:48:00,11.4,7.5,30.59,East,95,0.0,0.0,84,0.00,,,0.00,WeatherCatV1.15B25,2014-01-10 07:48:00,
2014-01-10 02:53:00,11.5,7.6,30.59,East,95,0.0,0.0,84,0.00,,,0.00,WeatherCatV1.15B25,2014-01-10 07:53:00,
2014-01-10 02:58:00,11.4,7.5,30.59,East,95,0.0,0.0,84,0.00,,,0.00,WeatherCatV1.15B25,2014-01-10 07:58:00,
2014-01-10 03:03:00,11.4,7.5,30.59,East,95,0.0,0.0,84,0.00,,,0.00,WeatherCatV1.15B25,2014-01-10 08:03:00,
2014-01-10 03:08:00,11.7,8.1,30.58,East,95,0.0,0.0,85,0.00,,,0.00,WeatherCatV1.15B25,2014-01-10 08:08:00,
2014-01-10 03:13:00,12.1,8.5,30.58,East,95,0.0,0.0,85,0.00,,,0.00,WeatherCatV1.15B25,2014-01-10 08:13:00,
2014-01-10 03:18:00,12.7,8.8,30.58,East,95,0.0,0.0,84,0.00,,,0.00,WeatherCatV1.15B25,2014-01-10 08:18:00,
2014-01-10 03:23:00,13.1,8.9,30.58,East,95,0.0,0.0,83,0.00,,,0.00,WeatherCatV1.15B25,2014-01-10 08:23:00,
2014-01-10 03:28:00,13.2,8.8,30.58,East,95,0.0,0.0,82,0.00,,,0.00,WeatherCatV1.15B25,2014-01-10 08:28:00,
2014-01-10 03:33:00,13.2,8.8,30.58,East,95,0.0,0.0,82,0.00,,,0.00,WeatherCatV1.15B25,2014-01-10 08:33:00,
2014-01-10 03:38:00,13.3,8.9,30.58,East,95,0.0,0.0,82,0.00,,,0.00,WeatherCatV1.15B25,2014-01-10 08:38:00,
2014-01-10 03:43:00,13.5,8.8,30.58,East,95,0.0,0.0,81,0.00,,,0.00,WeatherCatV1.15B25,2014-01-10 08:43:00,
2014-01-10 03:48:00,13.8,8.8,30.57,East,94,0.0,0.0,80,0.00,,,0.00,WeatherCatV1.15B25,2014-01-10 08:48:00,
2014-01-10 03:53:00,14.0,9.0,30.58,East,94,0.0,0.0,80,0.00,,,0.00,WeatherCatV1.15B25,2014-01-10 08:53:00,
2014-01-10 03:58:00,14.0,8.7,30.57,East,94,0.0,0.0,79,0.00,,,0.00,WeatherCatV1.15B25,2014-01-10 08:58:00,
2014-01-10 04:03:00,14.0,8.7,30.57,East,94,0.0,0.0,79,0.00,,,0.00,WeatherCatV1.15B25,2014-01-10 09:03:00,
2014-01-10 04:08:00,14.0,9.0,30.57,East,94,0.0,0.0,80,0.00,,,0.00,WeatherCatV1.15B25,2014-01-10 09:08:00,
2014-01-10 04:13:00,14.0,9.0,30.57,East,94,0.0,0.0,80,0.00,,,0.00,WeatherCatV1.15B25,2014-01-10 09:13:00,
2014-01-10 04:18:00,14.0,9.0,30.57,East,94,0.0,0.0,80,0.00,,,0.00,WeatherCatV1.15B25,2014-01-10 09:18:00,
2014-01-10 04:23:00,14.1,9.1,30.57,East,94,0.0,0.0,80,0.00,,,0.00,WeatherCatV1.15B25,2014-01-10 09:23:00,
2014-01-10 04:28:00,14.1,9.1,30.57,East,94,0.0,0.0,80,0.00,,,0.00,WeatherCatV1.15B25,2014-01-10 09:28:00,
2014-01-10 04:33:00,14.1,9.1,30.57,East,94,0.0,0.0,80,0.00,,,0.00,WeatherCatV1.15B25,2014-01-10 09:33:00,
2014-01-10 04:38:00,14.2,9.2,30.56,East,94,0.0,0.0,80,0.00,,,0.00,WeatherCatV1.15B25,2014-01-10 09:38:00,
2014-01-10 04:43:00,14.3,9.3,30.56,East,94,0.0,0.0,80,0.00,,,0.00,WeatherCatV1.15B25,2014-01-10 09:43:00,
2014-01-10 04:48:00,14.4,9.7,30.56,East,93,0.0,0.0,81,0.00,,,0.00,WeatherCatV1.15B25,2014-01-10 09:48:00,
2014-01-10 04:53:00,14.6,9.6,30.56,East,87,0.0,0.0,80,0.00,,,0.00,WeatherCatV1.15B25,2014-01-10 09:53:00,
2014-01-10 04:58:00,14.8,9.8,30.55,East,87,0.0,0.0,80,0.00,,,0.00,WeatherCatV1.15B25,2014-01-10 09:58:00,
2014-01-10 05:03:00,15.0,10.0,30.56,East,88,0.0,0.0,80,0.00,,,0.00,WeatherCatV1.15B25,2014-01-10 10:03:00,
2014-01-10 05:08:00,15.2,10.2,30.55,East,88,0.0,0.0,80,0.00,,,0.00,WeatherCatV1.15B25,2014-01-10 10:08:00,
2014-01-10 05:13:00,15.5,10.5,30.55,East,88,0.0,0.0,80,0.00,,,0.00,WeatherCatV1.15B25,2014-01-10 10:13:00,
2014-01-10 05:18:00,15.7,10.6,30.55,East,88,0.0,0.0,80,0.00,,,0.00,WeatherCatV1.15B25,2014-01-10 10:18:00,
2014-01-10 05:23:00,15.9,10.8,30.55,East,88,0.0,0.0,80,0.00,,,0.00,WeatherCatV1.15B25,2014-01-10 10:23:00,
2014-01-10 05:28:00,16.2,11.1,30.56,East,88,0.0,0.0,80,0.00,,,0.00,WeatherCatV1.15B25,2014-01-10 10:28:00,
2014-01-10 05:33:00,16.4,11.3,30.55,East,88,0.0,0.0,80,0.00,,,0.00,WeatherCatV1.15B25,2014-01-10 10:33:00,
2014-01-10 05:38:00,16.5,11.1,30.55,East,88,0.0,0.0,79,0.00,,,0.00,WeatherCatV1.15B25,2014-01-10 10:38:00,
2014-01-10 05:43:00,16.7,11.6,30.55,East,88,0.0,0.0,80,0.00,,,0.00,WeatherCatV1.15B25,2014-01-10 10:43:00,
2014-01-10 05:48:00,16.8,11.4,30.55,East,82,0.0,0.0,79,0.00,,,0.00,WeatherCatV1.15B25,2014-01-10 10:48:00,
2014-01-10 05:53:00,16.9,11.5,30.54,East,83,0.0,1.0,79,0.00,,,0.00,WeatherCatV1.15B25,2014-01-10 10:53:00,
2014-01-10 05:58:00,17.0,11.9,30.54,East,83,0.0,1.0,80,0.00,,,0.00,WeatherCatV1.15B25,2014-01-10 10:58:00,
2014-01-10 06:03:00,17.1,12.0,30.53,East,86,1.0,1.0,80,0.00,,,0.00,WeatherCatV1.15B25,2014-01-10 11:03:00,
2014-01-10 06:08:00,17.3,12.2,30.53,East,99,1.0,1.0,80,0.00,,,0.00,WeatherCatV1.15B25,2014-01-10 11:08:00,
2014-01-10 06:13:00,17.5,12.7,30.53,East,82,0.0,1.0,81,0.00,,,0.00,WeatherCatV1.15B25,2014-01-10 11:13:00,
2014-01-10 06:18:00,17.7,12.9,30.53,East,79,1.0,1.0,81,0.00,,,0.00,WeatherCatV1.15B25,2014-01-10 11:18:00,
2014-01-10 06:23:00,17.7,12.9,30.53,East,80,1.0,1.0,81,0.00,,,0.00,WeatherCatV1.15B25,2014-01-10 11:23:00,
2014-01-10 06:28:00,17.8,13.3,30.53,East,86,0.0,1.0,82,0.00,,,0.00,WeatherCatV1.15B25,2014-01-10 11:28:00,
2014-01-10 06:33:00,17.9,13.4,30.53,East,97,0.0,1.0,82,0.00,,,0.00,WeatherCatV1.15B25,2014-01-10 11:33:00,
2014-01-10 06:38:00,18.0,13.5,30.53,East,96,0.0,0.0,82,0.00,,,0.00,WeatherCatV1.15B25,2014-01-10 11:38:00,
2014-01-10 06:43:00,18.2,13.6,30.53,East,96,0.0,0.0,82,0.00,,,0.00,WeatherCatV1.15B25,2014-01-10 11:43:00,
2014-01-10 06:48:00,18.2,13.6,30.53,East,96,0.0,0.0,82,0.00,,,0.00,WeatherCatV1.15B25,2014-01-10 11:48:00,
2014-01-10 06:53:00,18.2,13.6,30.53,East,96,0.0,0.0,82,0.00,,,0.00,WeatherCatV1.15B25,2014-01-10 11:53:00,
2014-01-10 06:58:00,18.2,14.2,30.53,East,96,0.0,0.0,84,0.00,,,0.00,WeatherCatV1.15B25,2014-01-10 11:58:00,
2014-01-10 07:03:00,18.2,14.2,30.53,East,96,0.0,0.0,84,0.00,,,0.00,WeatherCatV1.15B25,2014-01-10 12:03:00,
2014-01-10 07:08:00,18.1,14.4,30.53,East,93,0.0,2.0,85,0.00,,,0.00,WeatherCatV1.15B25,2014-01-10 12:08:00,
2014-01-10 07:13:00,18.1,14.6,30.52,ESE,115,0.0,1.0,86,0.00,,,0.00,WeatherCatV1.15B25,2014-01-10 12:13:00,
2014-01-10 07:18:00,18.1,14.6,30.52,ESE,113,0.0,1.0,86,0.00,,,0.00,WeatherCatV1.15B25,2014-01-10 12:18:00,
2014-01-10 07:23:00,18.1,14.9,30.52,ESE,113,1.0,1.0,87,0.00,,,0.00,WeatherCatV1.15B25,2014-01-10 12:23:00,
2014-01-10 07:28:00,18.2,15.0,30.52,ESE,102,0.0,0.0,87,0.00,,,0.00,WeatherCatV1.15B25,2014-01-10 12:28:00,
2014-01-10 07:33:00,18.3,15.4,30.52,ESE,112,0.0,1.0,88,0.00,,,0.00,WeatherCatV1.15B25,2014-01-10 12:33:00,
2014-01-10 07:38:00,18.4,15.5,30.52,ESE,111,0.0,0.0,88,0.00,,,0.00,WeatherCatV1.15B25,2014-01-10 12:38:00,
2014-01-10 07:43:00,18.5,15.6,30.52,East,94,0.0,1.0,88,0.00,,,0.00,WeatherCatV1.15B25,2014-01-10 12:43:00,
2014-01-10 07:48:00,18.6,15.6,30.52,East,91,0.0,0.0,88,0.00,,,0.00,WeatherCatV1.15B25,2014-01-10 12:48:00,
2014-01-10 07:53:00,18.7,16.0,30.52,East,91,0.0,0.0,89,0.00,,,0.00,WeatherCatV1.15B25,2014-01-10 12:53:00,
2014-01-10 07:58:00,18.8,16.1,30.52,East,91,0.0,0.0,89,0.00,,,0.00,WeatherCatV1.15B25,2014-01-10 12:58:00,
2014-01-10 08:03:00,18.9,16.2,30.52,East,91,0.0,0.0,89,0.00,,,0.00,WeatherCatV1.15B25,2014-01-10 13:03:00,
2014-01-10 08:08:00,19.1,16.4,30.52,East,91,0.0,0.0,89,0.00,,,0.00,WeatherCatV1.15B25,2014-01-10 13:08:00,
2014-01-10 08:13:00,19.2,16.5,30.52,East,91,0.0,0.0,89,0.00,,,0.00,WeatherCatV1.15B25,2014-01-10 13:13:00,
2014-01-10 08:18:00,19.3,16.6,30.51,East,91,0.0,0.0,89,0.00,,,0.00,WeatherCatV1.15B25,2014-01-10 13:18:00,
2014-01-10 08:23:00,19.5,16.8,30.52,East,91,0.0,0.0,89,0.00,,,0.00,WeatherCatV1.15B25,2014-01-10 13:23:00,
2014-01-10 08:28:00,19.6,16.9,30.52,East,91,0.0,0.0,89,0.00,,,0.00,WeatherCatV1.15B25,2014-01-10 13:28:00,
2014-01-10 08:33:00,19.8,17.4,30.51,East,91,0.0,0.0,90,0.00,,,0.00,WeatherCatV1.15B25,2014-01-10 13:33:00,
2014-01-10 08:38:00,20.0,17.5,30.51,East,94,0.0,0.0,90,0.00,,,0.00,WeatherCatV1.15B25,2014-01-10 13:38:00,
2014-01-10 08:43:00,20.2,17.5,30.51,East,94,0.0,0.0,89,0.00,,,0.00,WeatherCatV1.15B25,2014-01-10 13:43:00,
2014-01-10 08:48:00,20.4,17.7,30.51,East,93,0.0,0.0,89,0.00,,,0.00,WeatherCatV1.15B25,2014-01-10 13:48:00,
2014-01-10 08:53:00,20.6,17.9,30.51,East,93,0.0,0.0,89,0.00,,,0.00,WeatherCatV1.15B25,2014-01-10 13:53:00,
2014-01-10 08:58:00,20.8,18.1,30.51,East,93,0.0,0.0,89,0.00,,,0.00,WeatherCatV1.15B25,2014-01-10 13:58:00,
2014-01-10 09:03:00,21.1,18.4,30.51,East,96,0.0,1.0,89,0.00,,,0.00,WeatherCatV1.15B25,2014-01-10 14:03:00,
2014-01-10 09:08:00,21.3,18.6,30.51,East,85,0.0,1.0,89,0.00,,,0.00,WeatherCatV1.15B25,2014-01-10 14:08:00,
2014-01-10 09:13:00,21.7,19.0,30.51,East,90,0.0,2.0,89,0.00,,,0.00,WeatherCatV1.15B25,2014-01-10 14:13:00,
2014-01-10 09:18:00,21.8,19.1,30.51,East,98,0.0,0.0,89,0.00,,,0.00,WeatherCatV1.15B25,2014-01-10 14:18:00,
2014-01-10 09:23:00,22.0,19.3,30.51,ENE,68,1.0,1.0,89,0.00,,,0.00,WeatherCatV1.15B25,2014-01-10 14:23:00,
2014-01-10 09:28:00,22.2,19.2,30.51,ENE,68,0.0,0.0,88,0.00,,,0.00,WeatherCatV1.15B25,2014-01-10 14:28:00,
2014-01-10 09:33:00,22.5,19.5,30.51,ESE,111,0.0,0.0,88,0.00,,,0.00,WeatherCatV1.15B25,2014-01-10 14:33:00,
2014-01-10 09:38:00,22.7,19.4,30.51,ESE,103,0.0,0.0,87,0.00,,,0.00,WeatherCatV1.15B25,2014-01-10 14:38:00,
2014-01-10 09:43:00,23.0,20.0,30.51,ESE,108,0.0,0.0,88,0.00,,,0.00,WeatherCatV1.15B25,2014-01-10 14:43:00,
2014-01-10 09:48:00,23.4,20.1,30.51,North,359,0.0,0.0,87,0.00,,,0.00,WeatherCatV1.15B25,2014-01-10 14:48:00,
2014-01-10 09:53:00,23.5,19.9,30.50,East,82,0.0,0.0,86,0.00,,,0.00,WeatherCatV1.15B25,2014-01-10 14:53:00,
2014-01-10 09:58:00,23.6,20.0,30.50,East,79,0.0,3.0,86,0.00,,,0.00,WeatherCatV1.15B25,2014-01-10 14:58:00,
2014-01-10 10:03:00,23.8,20.2,30.50,ENE,77,0.0,0.0,86,0.00,,,0.00,WeatherCatV1.15B25,2014-01-10 15:03:00,
2014-01-10 10:08:00,24.2,20.6,30.50,East,93,0.0,1.0,86,0.00,,,0.00,WeatherCatV1.15B25,2014-01-10 15:08:00,
2014-01-10 10:13:00,24.4,20.8,30.50,ESE,102,0.0,1.0,86,0.00,,,0.00,WeatherCatV1.15B25,2014-01-10 15:13:00,
2014-01-10 10:18:00,24.8,20.9,30.50,ESE,110,0.0,1.0,85,0.00,,,0.00,WeatherCatV1.15B25,2014-01-10 15:18:00,
2014-01-10 10:23:00,25.2,21.3,30.50,East,96,2.0,2.0,85,0.00,,,0.00,WeatherCatV1.15B25,2014-01-10 15:23:00,
2014-01-10 10:28:00,25.3,21.2,30.50,East,89,2.0,2.0,84,0.00,,,0.00,WeatherCatV1.15B25,2014-01-10 15:28:00,
2014-01-10 10:33:00,25.3,21.2,30.50,East,92,1.0,2.0,84,0.00,,,0.00,WeatherCatV1.15B25,2014-01-10 15:33:00,
2014-01-10 10:38:00,25.5,21.6,30.50,ENE,66,0.0,0.0,85,0.00,,,0.00,WeatherCatV1.15B25,2014-01-10 15:38:00,
2014-01-10 10:43:00,25.9,21.7,30.49,East,89,0.0,1.0,84,0.00,,,0.00,WeatherCatV1.15B25,2014-01-10 15:43:00,
2014-01-10 10:48:00,26.0,21.8,30.50,East,98,0.0,0.0,84,0.00,,,0.00,WeatherCatV1.15B25,2014-01-10 15:48:00,
2014-01-10 10:53:00,26.2,22.0,30.50,East,98,0.0,0.0,84,0.00,,,0.00,WeatherCatV1.15B25,2014-01-10 15:53:00,
2014-01-10 10:58:00,26.5,22.3,30.49,East,98,0.0,0.0,84,0.00,,,0.00,WeatherCatV1.15B25,2014-01-10 15:58:00,
2014-01-10 11:03:00,26.5,22.3,30.48,ESE,111,0.0,2.0,84,0.00,,,0.00,WeatherCatV1.15B25,2014-01-10 16:03:00,
2014-01-10 11:08:00,26.6,22.4,30.48,ENE,74,1.0,2.0,84,0.00,,,0.00,WeatherCatV1.15B25,2014-01-10 16:08:00,
2014-01-10 11:13:00,26.6,22.4,30.48,East,96,4.0,5.0,84,0.00,,,0.00,WeatherCatV1.15B25,2014-01-10 16:13:00,
2014-01-10 11:18:00,26.8,22.9,30.48,ENE,75,0.0,1.0,85,0.00,,,0.00,WeatherCatV1.15B25,2014-01-10 16:18:00,
2014-01-10 11:23:00,27.1,23.2,30.47,ENE,75,0.0,1.0,85,0.00,,,0.00,WeatherCatV1.15B25,2014-01-10 16:23:00,
2014-01-10 11:28:00,27.3,23.1,30.46,ENE,75,0.0,0.0,84,0.00,,,0.00,WeatherCatV1.15B25,2014-01-10 16:28:00,
2014-01-10 11:33:00,27.7,23.5,30.46,ENE,75,1.0,1.0,84,0.00,,,0.00,WeatherCatV1.15B25,2014-01-10 16:33:00,
2014-01-10 11:38:00,27.9,23.7,30.46,ESE,122,1.0,2.0,84,0.00,,,0.00,WeatherCatV1.15B25,2014-01-10 16:38:00,
2014-01-10 11:43:00,27.8,23.6,30.45,East,101,0.0,1.0,84,0.00,,,0.00,WeatherCatV1.15B25,2014-01-10 16:43:00,
2014-01-10 11:48:00,28.0,23.8,30.44,East,95,0.0,0.0,84,0.00,,,0.00,WeatherCatV1.15B25,2014-01-10 16:48:00,
2014-01-10 11:53:00,28.3,24.1,30.44,ENE,76,0.0,0.0,84,0.00,,,0.00,WeatherCatV1.15B25,2014-01-10 16:53:00,
2014-01-10 11:58:00,28.2,24.0,30.44,East,87,1.0,3.0,84,0.00,,,0.00,WeatherCatV1.15B25,2014-01-10 16:58:00,
2014-01-10 12:03:00,28.2,24.0,30.44,East,86,1.0,2.0,84,0.00,,,0.00,WeatherCatV1.15B25,2014-01-10 17:03:00,
2014-01-10 12:08:00,28.3,24.4,30.43,East,94,0.0,0.0,85,0.00,,,0.00,WeatherCatV1.15B25,2014-01-10 17:08:00,
2014-01-10 12:13:00,28.4,24.5,30.43,NW,324,0.0,0.0,85,0.00,,,0.00,WeatherCatV1.15B25,2014-01-10 17:13:00,
2014-01-10 12:18:00,28.5,24.6,30.43,East,89,1.0,2.0,85,0.00,,,0.00,WeatherCatV1.15B25,2014-01-10 17:18:00,
2014-01-10 12:23:00,28.5,24.6,30.42,East,86,0.0,1.0,85,0.00,,,0.00,WeatherCatV1.15B25,2014-01-10 17:23:00,
2014-01-10 12:28:00,28.5,24.6,30.42,East,86,0.0,0.0,85,0.00,,,0.00,WeatherCatV1.15B25,2014-01-10 17:28:00,
2014-01-10 12:33:00,28.6,25.0,30.42,East,81,0.0,0.0,86,0.00,,,0.00,WeatherCatV1.15B25,2014-01-10 17:33:00,
2014-01-10 12:38:00,28.8,25.2,30.43,East,82,0.0,0.0,86,0.00,,,0.00,WeatherCatV1.15B25,2014-01-10 17:38:00,
2014-01-10 12:43:00,29.0,25.3,30.42,ESE,110,2.0,3.0,86,0.00,,,0.00,WeatherCatV1.15B25,2014-01-10 17:43:00,
2014-01-10 12:48:00,29.0,25.3,30.42,East,98,1.0,1.0,86,0.00,,,0.00,WeatherCatV1.15B25,2014-01-10 17:48:00,
2014-01-10 12:53:00,29.0,25.6,30.42,WSW,257,0.0,0.0,87,0.00,,,0.00,WeatherCatV1.15B25,2014-01-10 17:53:00,
2014-01-10 12:58:00,29.0,25.3,30.42,East,94,0.0,0.0,86,0.00,,,0.00,WeatherCatV1.15B25,2014-01-10 17:58:00,
2014-01-10 13:03:00,29.0,25.6,30.42,East,97,0.0,0.0,87,0.00,,,0.00,WeatherCatV1.15B25,2014-01-10 18:03:00,
2014-01-10 13:08:00,29.1,25.7,30.42,East,97,0.0,0.0,87,0.00,,,0.00,WeatherCatV1.15B25,2014-01-10 18:08:00,
2014-01-10 13:13:00,29.2,25.8,30.41,East,97,0.0,0.0,87,0.00,,,0.00,WeatherCatV1.15B25,2014-01-10 18:13:00,
2014-01-10 13:18:00,29.6,26.5,30.41,East,97,0.0,0.0,88,0.00,,,0.00,WeatherCatV1.15B25,2014-01-10 18:18:00,
2014-01-10 13:23:00,29.9,26.5,30.41,East,97,0.0,0.0,87,0.00,,,0.00,WeatherCatV1.15B25,2014-01-10 18:23:00,
2014-01-10 13:28:00,30.1,27.0,30.40,East,96,0.0,0.0,88,0.00,,,0.00,WeatherCatV1.15B25,2014-01-10 18:28:00,
2014-01-10 13:33:00,30.2,27.1,30.40,East,96,0.0,1.0,88,0.00,,,0.00,WeatherCatV1.15B25,2014-01-10 18:33:00,
2014-01-10 13:38:00,30.6,27.5,30.40,ESE,104,0.0,0.0,88,0.00,,,0.00,WeatherCatV1.15B25,2014-01-10 18:38:00,
2014-01-10 13:43:00,30.8,27.4,30.40,ESE,104,0.0,0.0,87,0.00,,,0.00,WeatherCatV1.15B25,2014-01-10 18:43:00,
2014-01-10 13:48:00,31.1,27.7,30.40,ESE,104,0.0,0.0,87,0.00,,,0.00,WeatherCatV1.15B25,2014-01-10 18:48:00,
2014-01-10 13:53:00,31.2,27.8,30.39,NNE,26,0.0,3.0,87,0.00,,,0.00,WeatherCatV1.15B25,2014-01-10 18:53:00,
2014-01-10 13:58:00,31.3,27.9,30.39,NE,46,0.0,0.0,87,0.00,,,0.00,WeatherCatV1.15B25,2014-01-10 18:58:00,
2014-01-10 14:03:00,31.6,28.2,30.40,East,82,0.0,0.0,87,0.00,,,0.00,WeatherCatV1.15B25,2014-01-10 19:03:00,
2014-01-10 14:08:00,31.8,28.1,30.39,ENE,76,0.0,1.0,86,0.00,,,0.00,WeatherCatV1.15B25,2014-01-10 19:08:00,
2014-01-10 14:13:00,32.1,28.4,30.39,ENE,65,0.0,0.0,86,0.00,,,0.00,WeatherCatV1.15B25,2014-01-10 19:13:00,
2014-01-10 14:18:00,32.2,28.5,30.39,ENE,74,0.0,0.0,86,0.00,,,0.00,WeatherCatV1.15B25,2014-01-10 19:18:00,
2014-01-10 14:23:00,32.2,28.5,30.39,East,79,1.0,2.0,86,0.00,,,0.00,WeatherCatV1.15B25,2014-01-10 19:23:00,
2014-01-10 14:28:00,32.2,28.5,30.39,ENE,70,0.0,0.0,86,0.00,,,0.00,WeatherCatV1.15B25,2014-01-10 19:28:00,
2014-01-10 14:33:00,32.4,28.7,30.39,ENE,70,0.0,0.0,86,0.00,,,0.00,WeatherCatV1.15B25,2014-01-10 19:33:00,
2014-01-10 14:38:00,32.5,28.8,30.39,ESE,109,0.0,1.0,86,0.00,,,0.00,WeatherCatV1.15B25,2014-01-10 19:38:00,
2014-01-10 14:43:00,32.6,28.9,30.39,East,80,0.0,1.0,86,0.00,,,0.00,WeatherCatV1.15B25,2014-01-10 19:43:00,
2014-01-10 14:48:00,32.6,28.9,30.39,SE,140,0.0,1.0,86,0.00,,,0.00,WeatherCatV1.15B25,2014-01-10 19:48:00,
2014-01-10 14:53:00,32.7,29.0,30.38,ENE,59,0.0,2.0,86,0.00,,,0.00,WeatherCatV1.15B25,2014-01-10 19:53:00,
2014-01-10 14:58:00,32.7,29.0,30.38,East,82,1.0,1.0,86,0.00,,,0.00,WeatherCatV1.15B25,2014-01-10 19:58:00,
2014-01-10 15:03:00,32.7,29.0,30.38,ENE,70,1.0,2.0,86,0.00,,,0.00,WeatherCatV1.15B25,2014-01-10 20:03:00,
2014-01-10 15:08:00,32.7,29.0,30.38,East,88,1.0,1.0,86,0.00,,,0.00,WeatherCatV1.15B25,2014-01-10 20:08:00,
2014-01-10 15:13:00,32.7,29.0,30.38,East,94,3.0,3.0,86,0.00,,,0.00,WeatherCatV1.15B25,2014-01-10 20:13:00,
2014-01-10 15:18:00,32.7,29.0,30.38,ENE,73,1.0,2.0,86,0.00,,,0.00,WeatherCatV1.15B25,2014-01-10 20:18:00,
2014-01-10 15:23:00,32.7,29.3,30.38,NE,39,2.0,2.0,87,0.00,,,0.00,WeatherCatV1.15B25,2014-01-10 20:23:00,
2014-01-10 15:28:00,32.8,29.4,30.38,East,88,1.0,2.0,87,0.00,,,0.00,WeatherCatV1.15B25,2014-01-10 20:28:00,
2014-01-10 15:33:00,32.8,29.4,30.38,East,84,0.0,2.0,87,0.00,,,0.00,WeatherCatV1.15B25,2014-01-10 20:33:00,
2014-01-10 15:38:00,32.8,29.4,30.37,East,88,0.0,1.0,87,0.00,,,0.00,WeatherCatV1.15B25,2014-01-10 20:38:00,
2014-01-10 15:43:00,32.9,29.5,30.37,East,91,0.0,3.0,87,0.00,,,0.00,WeatherCatV1.15B25,2014-01-10 20:43:00,
2014-01-10 15:48:00,33.1,29.7,30.37,East,91,0.0,0.0,87,0.00,,,0.00,WeatherCatV1.15B25,2014-01-10 20:48:00,
2014-01-10 15:53:00,33.2,30.0,30.37,East,95,0.0,1.0,88,0.00,,,0.00,WeatherCatV1.15B25,2014-01-10 20:53:00,
2014-01-10 15:58:00,33.2,30.0,30.37,East,101,0.0,1.0,88,0.00,,,0.00,WeatherCatV1.15B25,2014-01-10 20:58:00,
2014-01-10 16:03:00,33.2,30.0,30.37,ENE,63,0.0,0.0,88,0.00,,,0.00,WeatherCatV1.15B25,2014-01-10 21:03:00,
2014-01-10 16:08:00,33.2,30.0,30.37,ENE,63,0.0,0.0,88,0.00,,,0.00,WeatherCatV1.15B25,2014-01-10 21:08:00,
2014-01-10 16:13:00,33.2,30.0,30.37,ENE,63,0.0,0.0,88,0.00,,,0.00,WeatherCatV1.15B25,2014-01-10 21:13:00,
2014-01-10 16:18:00,33.2,30.0,30.37,ENE,62,0.0,0.0,88,0.00,,,0.00,WeatherCatV1.15B25,2014-01-10 21:18:00,
2014-01-10 16:23:00,33.1,29.9,30.37,ENE,62,0.0,0.0,88,0.00,,,0.00,WeatherCatV1.15B25,2014-01-10 21:23:00,
2014-01-10 16:28:00,33.0,30.1,30.37,ENE,62,0.0,0.0,89,0.00,,,0.00,WeatherCatV1.15B25,2014-01-10 21:28:00,
2014-01-10 16:33:00,32.9,30.0,30.37,ENE,62,0.0,0.0,89,0.00,,,0.00,WeatherCatV1.15B25,2014-01-10 21:33:00,
2014-01-10 16:38:00,32.7,29.8,30.37,ENE,62,0.0,0.0,89,0.00,,,0.00,WeatherCatV1.15B25,2014-01-10 21:38:00,
2014-01-10 16:43:00,32.6,29.7,30.37,ENE,62,0.0,0.0,89,0.00,,,0.00,WeatherCatV1.15B25,2014-01-10 21:43:00,
2014-01-10 16:48:00,32.5,29.9,30.36,ENE,62,0.0,0.0,90,0.00,,,0.00,WeatherCatV1.15B25,2014-01-10 21:48:00,
2014-01-10 16:53:00,32.5,29.9,30.36,ENE,63,0.0,0.0,90,0.00,,,0.00,WeatherCatV1.15B25,2014-01-10 21:53:00,
2014-01-10 16:58:00,32.5,29.9,30.36,ENE,67,0.0,0.0,90,0.00,,,0.00,WeatherCatV1.15B25,2014-01-10 21:58:00,
2014-01-10 17:03:00,32.4,29.8,30.36,ENE,67,0.0,0.0,90,0.00,,,0.00,WeatherCatV1.15B25,2014-01-10 22:03:00,
2014-01-10 17:08:00,32.3,29.7,30.36,ENE,67,0.0,0.0,90,0.00,,,0.00,WeatherCatV1.15B25,2014-01-10 22:08:00,
2014-01-10 17:13:00,32.2,29.9,30.36,East,89,0.0,1.0,91,0.00,,,0.00,WeatherCatV1.15B25,2014-01-10 22:13:00,
2014-01-10 17:18:00,32.3,30.0,30.36,East,89,0.0,0.0,91,0.00,,,0.00,WeatherCatV1.15B25,2014-01-10 22:18:00,
2014-01-10 17:23:00,32.4,30.1,30.36,East,89,0.0,0.0,91,0.00,,,0.00,WeatherCatV1.15B25,2014-01-10 22:23:00,
2014-01-10 17:28:00,32.5,30.2,30.36,East,89,0.0,0.0,91,0.00,,,0.00,WeatherCatV1.15B25,2014-01-10 22:28:00,
2014-01-10 17:33:00,32.6,30.5,30.36,ENE,76,1.0,3.0,92,0.00,,,0.00,WeatherCatV1.15B25,2014-01-10 22:33:00,
2014-01-10 17:38:00,32.9,30.8,30.36,ENE,71,1.0,2.0,92,0.00,,,0.00,WeatherCatV1.15B25,2014-01-10 22:38:00,
2014-01-10 17:43:00,33.1,30.8,30.36,East,88,0.0,1.0,91,0.00,,,0.00,WeatherCatV1.15B25,2014-01-10 22:43:00,
2014-01-10 17:48:00,33.2,30.9,30.36,ENE,60,0.0,1.0,91,0.00,,,0.00,WeatherCatV1.15B25,2014-01-10 22:48:00,
2014-01-10 17:53:00,33.2,30.9,30.36,ENE,60,0.0,1.0,91,0.00,,,0.00,WeatherCatV1.15B25,2014-01-10 22:53:00,
2014-01-10 17:58:00,33.2,30.9,30.36,ENE,63,0.0,0.0,91,0.00,,,0.00,WeatherCatV1.15B25,2014-01-10 22:58:00,
2014-01-10 18:03:00,33.2,30.9,30.36,ENE,69,0.0,0.0,91,0.00,,,0.00,WeatherCatV1.15B25,2014-01-10 23:03:00,
2014-01-10 18:08:00,33.2,30.9,30.36,East,85,0.0,0.0,91,0.00,,,0.00,WeatherCatV1.15B25,2014-01-10 23:08:00,
2014-01-10 18:13:00,33.2,30.9,30.36,East,81,0.0,0.0,91,0.00,,,0.00,WeatherCatV1.15B25,2014-01-10 23:13:00,
2014-01-10 18:18:00,33.2,30.9,30.36,East,81,0.0,0.0,91,0.00,,,0.00,WeatherCatV1.15B25,2014-01-10 23:18:00,
2014-01-10 18:23:00,33.3,31.0,30.36,ENE,75,0.0,0.0,91,0.00,,,0.00,WeatherCatV1.15B25,2014-01-10 23:23:00,
2014-01-10 18:28:00,33.2,30.9,30.36,ENE,75,0.0,0.0,91,0.00,,,0.00,WeatherCatV1.15B25,2014-01-10 23:28:00,
2014-01-10 18:33:00,33.2,30.9,30.36,East,82,0.0,0.0,91,0.00,,,0.00,WeatherCatV1.15B25,2014-01-10 23:33:00,
2014-01-10 18:38:00,33.2,30.9,30.36,East,82,0.0,0.0,91,0.00,,,0.00,WeatherCatV1.15B25,2014-01-10 23:38:00,
2014-01-10 18:43:00,33.2,31.1,30.36,East,82,0.0,0.0,92,0.00,,,0.00,WeatherCatV1.15B25,2014-01-10 23:43:00,
2014-01-10 18:48:00,33.2,31.1,30.36,East,82,0.0,0.0,92,0.00,,,0.00,WeatherCatV1.15B25,2014-01-10 23:48:00,
2014-01-10 18:53:00,33.3,31.2,30.36,East,82,0.0,0.0,92,0.00,,,0.00,WeatherCatV1.15B25,2014-01-10 23:53:00,
2014-01-10 18:58:00,33.2,31.1,30.36,East,82,0.0,0.0,92,0.00,,,0.00,WeatherCatV1.15B25,2014-01-10 23:58:00,
2014-01-10 19:03:00,33.3,31.2,30.36,East,81,0.0,0.0,92,0.00,,,0.00,WeatherCatV1.15B25,2014-01-11 00:03:00,
2014-01-10 19:08:00,33.5,31.4,30.36,East,84,0.0,0.0,92,0.00,,,0.00,WeatherCatV1.15B25,2014-01-11 00:08:00,
2014-01-10 19:13:00,33.5,31.4,30.36,East,84,0.0,0.0,92,0.00,,,0.00,WeatherCatV1.15B25,2014-01-11 00:13:00,
2014-01-10 19:18:00,33.7,31.6,30.36,East,84,0.0,0.0,92,0.00,,,0.00,WeatherCatV1.15B25,2014-01-11 00:18:00,
2014-01-10 19:23:00,33.8,31.7,30.36,East,84,0.0,0.0,92,0.00,,,0.00,WeatherCatV1.15B25,2014-01-11 00:23:00,
2014-01-10 19:28:00,33.8,31.7,30.36,East,84,0.0,0.0,92,0.00,,,0.00,WeatherCatV1.15B25,2014-01-11 00:28:00,
2014-01-10 19:33:00,33.8,31.7,30.36,East,84,0.0,0.0,92,0.00,,,0.00,WeatherCatV1.15B25,2014-01-11 00:33:00,
2014-01-10 19:38:00,33.7,31.6,30.36,East,84,0.0,0.0,92,0.00,,,0.00,WeatherCatV1.15B25,2014-01-11 00:38:00,
2014-01-10 19:43:00,33.7,31.6,30.36,East,84,0.0,0.0,92,0.00,,,0.00,WeatherCatV1.15B25,2014-01-11 00:43:00,
2014-01-10 19:48:00,33.8,31.7,30.35,East,84,0.0,0.0,92,0.00,,,0.00,WeatherCatV1.15B25,2014-01-11 00:48:00,
2014-01-10 19:53:00,34.0,32.2,30.35,East,84,0.0,0.0,93,0.00,,,0.00,WeatherCatV1.15B25,2014-01-11 00:53:00,
2014-01-10 19:58:00,34.2,32.4,30.35,East,84,0.0,0.0,93,0.00,,,0.00,WeatherCatV1.15B25,2014-01-11 00:58:00,
2014-01-10 20:03:00,34.3,32.5,30.35,East,84,0.0,0.0,93,0.00,,,0.00,WeatherCatV1.15B25,2014-01-11 01:03:00,
2014-01-10 20:08:00,34.2,32.4,30.35,East,84,0.0,0.0,93,0.00,,,0.00,WeatherCatV1.15B25,2014-01-11 01:08:00,
2014-01-10 20:13:00,34.3,32.5,30.35,East,84,0.0,0.0,93,0.00,,,0.00,WeatherCatV1.15B25,2014-01-11 01:13:00,
2014-01-10 20:18:00,34.2,32.4,30.35,East,84,0.0,0.0,93,0.00,,,0.00,WeatherCatV1.15B25,2014-01-11 01:18:00,
2014-01-10 20:23:00,34.2,32.4,30.35,East,84,0.0,0.0,93,0.00,,,0.00,WeatherCatV1.15B25,2014-01-11 01:23:00,
2014-01-10 20:28:00,34.1,32.3,30.35,East,84,0.0,0.0,93,0.00,,,0.00,WeatherCatV1.15B25,2014-01-11 01:28:00,
2014-01-10 20:33:00,34.1,32.3,30.35,East,84,0.0,0.0,93,0.00,,,0.00,WeatherCatV1.15B25,2014-01-11 01:33:00,
2014-01-10 20:38:00,34.1,32.3,30.34,East,84,0.0,0.0,93,0.00,,,0.00,WeatherCatV1.15B25,2014-01-11 01:38:00,
2014-01-10 20:43:00,34.2,32.4,30.35,East,84,0.0,0.0,93,0.00,,,0.00,WeatherCatV1.15B25,2014-01-11 01:43:00,
2014-01-10 20:48:00,34.1,32.3,30.35,East,84,0.0,0.0,93,0.00,,,0.00,WeatherCatV1.15B25,2014-01-11 01:48:00,
2014-01-10 20:53:00,34.1,32.3,30.34,East,84,0.0,0.0,93,0.00,,,0.00,WeatherCatV1.15B25,2014-01-11 01:53:00,
2014-01-10 20:58:00,34.1,32.3,30.34,East,84,0.0,0.0,93,0.00,,,0.00,WeatherCatV1.15B25,2014-01-11 01:58:00,
2014-01-10 21:03:00,34.1,32.3,30.34,East,84,0.0,0.0,93,0.00,,,0.00,WeatherCatV1.15B25,2014-01-11 02:03:00,
2014-01-10 21:08:00,34.1,32.3,30.33,East,84,0.0,0.0,93,0.00,,,0.00,WeatherCatV1.15B25,2014-01-11 02:08:00,
2014-01-10 21:13:00,34.1,32.3,30.33,East,84,0.0,0.0,93,0.00,,,0.00,WeatherCatV1.15B25,2014-01-11 02:13:00,
2014-01-10 21:18:00,34.2,32.4,30.33,East,84,0.0,0.0,93,0.00,,,0.00,WeatherCatV1.15B25,2014-01-11 02:18:00,
2014-01-10 21:23:00,34.2,32.4,30.33,East,84,0.0,0.0,93,0.00,,,0.00,WeatherCatV1.15B25,2014-01-11 02:23:00,
2014-01-10 21:28:00,34.1,32.3,30.33,East,84,0.0,0.0,93,0.00,,,0.00,WeatherCatV1.15B25,2014-01-11 02:28:00,
2014-01-10 21:33:00,34.2,32.4,30.33,East,84,0.0,0.0,93,0.00,,,0.00,WeatherCatV1.15B25,2014-01-11 02:33:00,
2014-01-10 21:38:00,34.3,32.5,30.33,East,84,0.0,0.0,93,0.00,,,0.00,WeatherCatV1.15B25,2014-01-11 02:38:00,
2014-01-10 21:43:00,34.4,32.9,30.32,East,84,0.0,0.0,94,0.00,,,0.00,WeatherCatV1.15B25,2014-01-11 02:43:00,
2014-01-10 21:48:00,34.5,33.0,30.33,East,84,0.0,0.0,94,0.00,,,0.00,WeatherCatV1.15B25,2014-01-11 02:48:00,
2014-01-10 21:53:00,34.4,32.9,30.32,East,84,0.0,0.0,94,0.00,,,0.00,WeatherCatV1.15B25,2014-01-11 02:53:00,
2014-01-10 21:58:00,34.4,32.9,30.33,East,84,0.0,0.0,94,0.00,,,0.00,WeatherCatV1.15B25,2014-01-11 02:58:00,
2014-01-10 22:03:00,34.4,32.9,30.32,East,84,0.0,0.0,94,0.00,,,0.00,WeatherCatV1.15B25,2014-01-11 03:03:00,
2014-01-10 22:08:00,34.3,32.8,30.32,East,84,0.0,0.0,94,0.00,,,0.00,WeatherCatV1.15B25,2014-01-11 03:08:00,
2014-01-10 22:13:00,34.2,32.7,30.32,East,84,0.0,0.0,94,0.00,,,0.00,WeatherCatV1.15B25,2014-01-11 03:13:00,
2014-01-10 22:18:00,34.2,32.7,30.32,East,84,0.0,0.0,94,0.00,,,0.00,WeatherCatV1.15B25,2014-01-11 03:18:00,
2014-01-10 22:23:00,34.2,32.7,30.32,East,84,0.0,0.0,94,0.00,,,0.00,WeatherCatV1.15B25,2014-01-11 03:23:00,
2014-01-10 22:28:00,34.2,32.7,30.31,East,84,0.0,0.0,94,0.00,,,0.00,WeatherCatV1.15B25,2014-01-11 03:28:00,
2014-01-10 22:33:00,34.1,32.6,30.31,East,84,0.0,0.0,94,0.00,,,0.00,WeatherCatV1.15B25,2014-01-11 03:33:00,
2014-01-10 22:38:00,34.2,32.7,30.31,East,84,0.0,0.0,94,0.00,,,0.00,WeatherCatV1.15B25,2014-01-11 03:38:00,
2014-01-10 22:43:00,34.2,32.7,30.31,East,84,0.0,0.0,94,0.00,,,0.00,WeatherCatV1.15B25,2014-01-11 03:43:00,
2014-01-10 22:48:00,34.2,32.7,30.30,East,84,0.0,0.0,94,0.00,,,0.00,WeatherCatV1.15B25,2014-01-11 03:48:00,
2014-01-10 22:53:00,34.3,32.8,30.31,East,84,0.0,0.0,94,0.00,,,0.00,WeatherCatV1.15B25,2014-01-11 03:53:00,
2014-01-10 22:58:00,34.3,32.8,30.30,East,84,0.0,0.0,94,0.00,,,0.00,WeatherCatV1.15B25,2014-01-11 03:58:00,
2014-01-10 23:03:00,34.3,32.8,30.30,East,84,0.0,0.0,94,0.00,,,0.00,WeatherCatV1.15B25,2014-01-11 04:03:00,
2014-01-10 23:08:00,34.2,32.7,30.30,East,84,0.0,0.0,94,0.00,,,0.00,WeatherCatV1.15B25,2014-01-11 04:08:00,
2014-01-10 23:13:00,34.2,32.7,30.29,East,84,0.0,0.0,94,0.00,,,0.00,WeatherCatV1.15B25,2014-01-11 04:13:00,
2014-01-10 23:18:00,34.2,32.7,30.29,East,84,0.0,0.0,94,0.00,,,0.00,WeatherCatV1.15B25,2014-01-11 04:18:00,
2014-01-10 23:23:00,34.3,32.8,30.29,East,84,0.0,0.0,94,0.00,,,0.00,WeatherCatV1.15B25,2014-01-11 04:23:00,
2014-01-10 23:28:00,34.3,32.8,30.29,East,84,0.0,0.0,94,0.00,,,0.00,WeatherCatV1.15B25,2014-01-11 04:28:00,
2014-01-10 23:33:00,34.3,32.8,30.29,East,84,0.0,0.0,94,0.00,,,0.00,WeatherCatV1.15B25,2014-01-11 04:33:00,
2014-01-10 23:38:00,34.2,32.7,30.29,East,84,0.0,0.0,94,0.00,,,0.00,WeatherCatV1.15B25,2014-01-11 04:38:00,
2014-01-10 23:43:00,34.2,32.7,30.29,East,84,0.0,0.0,94,0.00,,,0.00,WeatherCatV1.15B25,2014-01-11 04:43:00,
2014-01-10 23:48:00,34.2,32.7,30.28,East,84,0.0,0.0,94,0.00,,,0.00,WeatherCatV1.15B25,2014-01-11 04:48:00,
2014-01-10 23:53:00,34.2,32.7,30.28,East,84,0.0,0.0,94,0.00,,,0.00,WeatherCatV1.15B25,2014-01-11 04:53:00,
2014-01-10 23:58:00,34.2,32.7,30.28,East,84,0.0,0.0,94,0.00,,,0.00,WeatherCatV1.15B25,2014-01-11 04:58:00,